Santa Fe, NM

5:01 PM MDT on July 26, 2016 (GMT -0600)
Santa Fe Municipal

Weather History for KSAF - October, 2012

Change the Weather History Date:

Sunday, October 21, 2012

  Actual Average Record
Temperature  
Mean Temperature 58 °F -  
Max Temperature 73 °F 69 °F 81 °F (2003)
Min Temperature 43 °F 28 °F 21 °F (1996)
Degree Days  
Heating Degree Days 8    
Growing Degree Days 8 (Base 50)    
Moisture  
Dew Point 27 °F    
Average Humidity 32    
Maximum Humidity 47    
Minimum Humidity 19    
Precipitation  
Precipitation 0.00 in - - ()
Sea Level Pressure  
Sea Level Pressure 29.78 in    
Wind  
Wind Speed 6 mph (WNW)    
Max Wind Speed 20 mph    
Max Gust Speed 29 mph    
Visibility 10 miles    
Events      
Averages and records for this station are not official NWS values.
T = Trace of Precipitation, MM = Missing Value Source: NWS Daily Summary

Daily Weather History Graph

Daily Weather History Graph

Search for Another Location

Airport or City:

Trip Planner

Search our weather history database for the weather conditions in past years. The results will help you decide how hot, cold, wet, or windy it might be!

Date:

Astronomy

Oct. 21, 2012 Rise Set
Actual Time 7:16 AM MDT 6:20 PM MDT
Civil Twilight 6:50 AM MDT 6:46 PM MDT
Nautical Twilight 6:20 AM MDT 7:16 PM MDT
Astronomical Twilight 5:51 AM MDT 7:45 PM MDT
Moon 1:35 PM MDT (10/21) No Moon Set
Length of Visible Light 11h 55m
Length of Day
11h 04m
Waxing Crescent, 46% of the Moon is Illuminated
Oct 21
Waxing Crescent
Oct 21
First Quarter
Oct 29
Full
Nov 6
Last Quarter
Nov 13
New

Hourly Weather History & Observations

Time (MDT) Temp. Windchill Dew Point Humidity Pressure Visibility Wind Dir Wind Speed Gust Speed Precip Events Conditions
12:53 AM 51.1 °F - 19.9 °F 29% 29.72 in 10.0 mi NNE 3.5 mph - N/A   Clear
1:53 AM 51.1 °F - 19.9 °F 29% 29.73 in 10.0 mi Calm Calm - N/A   Clear
2:53 AM 48.0 °F - 19.9 °F 33% 29.76 in 10.0 mi NNE 4.6 mph - N/A   Clear
3:53 AM 48.0 °F - 24.1 °F 39% 29.75 in 10.0 mi North 4.6 mph - N/A   Clear
4:53 AM 43.0 °F 40.3 °F 24.1 °F 47% 29.77 in 10.0 mi North 4.6 mph - N/A   Clear
5:53 AM 50.0 °F - 28.9 °F 44% 29.77 in 10.0 mi Calm Calm - N/A   Clear
6:53 AM 48.9 °F - 28.9 °F 46% 29.81 in 10.0 mi NNW 3.5 mph - N/A   Clear
7:53 AM 48.9 °F - 28.9 °F 46% 29.84 in 10.0 mi Calm Calm - N/A   Clear
8:53 AM 57.0 °F - 30.9 °F 37% 29.85 in 10.0 mi WSW 8.1 mph - N/A   Clear
9:53 AM 62.1 °F - 28.9 °F 29% 29.83 in 10.0 mi WSW 13.8 mph 18.4 mph N/A   Clear
10:53 AM 63.0 °F - 30.0 °F 29% 29.83 in 10.0 mi WSW 13.8 mph 20.7 mph N/A   Clear
11:53 AM 66.9 °F - 28.9 °F 24% 29.81 in 10.0 mi WSW 10.4 mph - N/A   Clear
12:53 PM 69.1 °F - 26.1 °F 20% 29.78 in 10.0 mi West 12.7 mph 23.0 mph N/A   Clear
1:53 PM 71.1 °F - 26.1 °F 19% 29.74 in 10.0 mi WSW 17.3 mph 28.8 mph N/A   Clear
2:53 PM 72.0 °F - 28.0 °F 20% 29.73 in 10.0 mi WSW 16.1 mph 28.8 mph N/A   Clear
3:53 PM 71.1 °F - 30.0 °F 22% 29.73 in 10.0 mi WSW 19.6 mph 26.5 mph N/A   Clear
4:53 PM 70.0 °F - 27.0 °F 20% 29.76 in 10.0 mi West 12.7 mph 21.9 mph N/A   Clear
5:53 PM 68.0 °F - 28.0 °F 22% 29.75 in 10.0 mi West 10.4 mph - N/A   Clear
6:53 PM 63.0 °F - 28.0 °F 27% 29.78 in 10.0 mi Calm Calm - N/A   Clear
7:53 PM 57.9 °F - 27.0 °F 31% 29.80 in 10.0 mi NNE 5.8 mph - N/A   Clear
8:53 PM 52.0 °F - 26.1 °F 37% 29.81 in 10.0 mi Calm Calm - N/A   Scattered Clouds
9:53 PM 53.1 °F - 27.0 °F 37% 29.79 in 10.0 mi Calm Calm - N/A   Clear
10:53 PM 48.9 °F - 26.1 °F 41% 29.80 in 10.0 mi NNW 5.8 mph - N/A   Partly Cloudy
11:53 PM 50.0 °F - 27.0 °F 41% 29.77 in 10.0 mi Calm Calm - N/A   Clear